Regional Weather Roundup
Issued by NWS

Home | Current Version | Previous Version | Text Only | Print | Product List | Glossary Off
Versions: 1 2 3 4 5 6 7 8 9 10 11 12 13 14 15 16 17 18 19 20 21 22 23 24 25 26 27 28 29 30 31 32 33 34 35 36 37 38 39 40 41 42 43 44 45 46 47 48 49 50

000
ASUS43 KFSD 220302
RWRSD

WEATHER ROUNDUP FOR SOUTH DAKOTA
NATIONAL WEATHER SERVICE SIOUX FALLS SD
900 PM CST FRI NOV 21 2014

NOTE: "FAIR" INDICATES FEW OR NO CLOUDS BELOW 12,000 FEET WITH NO
SIGNIFICANT WEATHER AND/OR OBSTRUCTIONS TO VISIBILITY.


SDZ001>005-009-010-012>017-220400-
NORTHWEST AND NORTH CENTRAL SOUTH DAKOTA

CITY           SKY/WX    TMP DP  RH WIND       PRES   REMARKS
BUFFALO          N/A     34  26  72 W9        29.70F WCI  27
FAITH            N/A     37  26  64 SW8       29.79S
MOBRIDGE       CLEAR     32  27  81 SE7       29.75S WCI  26
$$

SDZ012>016-024>037-041>051-057-063-072>074-220400-
SOUTHWEST AND SOUTH CENTRAL SOUTH DAKOTA

CITY           SKY/WX    TMP DP  RH WIND       PRES   REMARKS
RAPID CTY ARPT CLEAR     34  24  67 SW8       29.82F WCI  27
PIERRE         CLEAR     33  28  81 SW7       29.81S WCI  27
CUSTER         CLEAR     24  18  77 CALM      29.84F
ELLSWORTH AFB  CLEAR     35  23  63 W7        29.81F WCI  29
PHILIP         PTCLDY    35  27  72 W8        29.84R WCI  29
PINE RIDGE     CLEAR     28  24  85 CALM      29.85F
WINNER         FAIR      42  29  59 SW7       29.84R
$$

SDZ004>011-016>023-039-040-220400-
NORTHEAST SOUTH DAKOTA

CITY           SKY/WX    TMP DP  RH WIND       PRES   REMARKS
ABERDEEN       MOCLDY    31  26  82 S9        29.78S WCI  23
WATERTOWN      CLOUDY    33  29  85 S9        29.80F WCI  25
SISSETON         N/A     37  29  72 W23G31    29.71F
$$

SDZ017-020-022-023-036>040-048>070-220400-
SOUTHEAST SOUTH DAKOTA

CITY           SKY/WX    TMP DP  RH WIND       PRES   REMARKS
SIOUX FALLS    CLOUDY    33  28  81 S9        29.88F WCI  25
HURON          MOCLDY    35  31  85 S5        29.82F
CHAMBERLAIN    PTCLDY    32  28  85 SW5       29.83S WCI  28
MITCHELL       CLOUDY    37  32  82 S8        29.85S
YANKTON        MOCLDY    37  28  70 S6        29.91S
$$

ABBREVIATIONS USED IN REMARKS
   TC - TEMPERATURE IN CELSIUS
  WCI - WIND CHILL INDEX
   HX - HEAT INDEX
  VSB - VISIBILITY



USA.gov is the U.S. government's official web portal to all federal, state and local government web resources and services.